Location: Unspecified
(56.5167°N, 0.0000°E)
Time: 05:32:54
(UTC+02:00)

ISS - Visible Passes

Search period start: 01 June 2016 00:00
Search period end: 11 June 2016 00:00
Orbit: 402 x 404 km, 51.6° (Epoch: 31 May)

Date Brightness Start Highest point End Pass type
(mag) Time Alt. Az. Time Alt. Az. Time Alt. Az.
01 Jun -2.7 00:56:19 10° WSW 00:59:20 34° S 01:02:20 10° ESE visible
01 Jun -1.9 02:32:46 10° WSW 02:35:14 20° SSW 02:35:57 18° S visible
02 Jun -2.7 00:03:39 10° WSW 00:06:41 35° S 00:09:41 10° ESE visible
02 Jun -2.2 01:39:54 10° WSW 01:42:39 25° SSW 01:44:10 18° SSE visible
03 Jun -2.4 00:47:07 10° WSW 00:50:01 30° SSW 00:52:42 11° SE visible
03 Jun -1.3 02:24:06 10° WSW 02:25:16 13° SW 02:25:16 13° SW visible
03 Jun -2.5 23:54:22 10° WSW 23:57:22 33° S 00:00:21 10° ESE visible
04 Jun -1.7 01:30:54 10° WSW 01:33:14 18° SSW 01:33:55 17° S visible
05 Jun -2.0 00:37:58 10° WSW 00:40:38 23° SSW 00:42:40 14° SSE visible
05 Jun -2.2 23:45:08 10° WSW 23:48:01 28° SSW 23:50:53 10° SE visible
06 Jun -1.2 01:22:22 10° WSW 01:23:43 12° SSW 01:24:03 12° SSW visible
07 Jun -1.5 00:29:00 10° WSW 00:31:11 17° SSW 00:32:54 12° S visible
09 Jun -1.0 00:20:43 10° SW 00:21:37 11° SW 00:22:30 10° SSW visible
